www.pogodaiklimat.ru
Время
(UTC), дата
19 4.08
20 4.08
21 4.08
22 4.08
23 4.08
00 5.08
01 5.08
02 5.08
03 5.08
04 5.08
05 5.08
06 5.08
07 5.08
08 5.08
09 5.08
10 5.08
11 5.08
12 5.08
13 5.08
14 5.08
15 5.08
16 5.08
17 5.08
18 5.08
19 5.08
20 5.08
21 5.08
22 5.08
23 5.08
00 6.08
01 6.08
02 6.08
03 6.08
04 6.08
05 6.08
06 6.08
07 6.08
08 6.08
09 6.08
10 6.08
11 6.08
12 6.08
13 6.08
14 6.08
15 6.08
16 6.08
17 6.08
18 6.08
19 6.08
20 6.08
21 6.08
22 6.08
23 6.08
00 7.08
01 7.08
02 7.08
03 7.08
04 7.08
05 7.08
06 7.08
07 7.08
08 7.08
09 7.08
10 7.08
11 7.08
12 7.08
13 7.08
14 7.08
15 7.08
16 7.08
17 7.08
18 7.08
19 7.08
20 7.08
21 7.08
22 7.08
23 7.08
00 8.08
01 8.08
02 8.08
03 8.08
04 8.08
05 8.08
06 8.08
07 8.08
08 8.08
09 8.08
10 8.08
11 8.08
12 8.08
13 8.08
14 8.08
15 8.08
16 8.08
17 8.08
18 8.08
19 8.08
20 8.08
21 8.08
22 8.08
23 8.08
00 9.08
01 9.08
02 9.08
03 9.08
04 9.08
05 9.08
06 9.08
07 9.08
08 9.08
09 9.08
10 9.08
11 9.08
12 9.08
13 9.08
14 9.08
15 9.08
16 9.08
17 9.08
18 9.08
19 9.08
20 9.08
21 9.08
22 9.08
23 9.08
00 10.08
01 10.08
02 10.08
03 10.08
04 10.08
05 10.08
06 10.08
07 10.08
08 10.08
09 10.08
10 10.08
11 10.08
12 10.08
13 10.08
14 10.08
15 10.08
16 10.08
17 10.08
18 10.08
19 10.08
20 10.08
21 10.08
22 10.08
23 10.08
00 11.08
01 11.08
02 11.08
03 11.08
04 11.08
05 11.08
06 11.08
07 11.08
08 11.08
09 11.08
10 11.08
11 11.08
12 11.08
13 11.08
14 11.08
15 11.08
17 11.08
18 11.08
Ветер
(напр.,м/с)
Видим. Явления Облачность Т
(С)
Тd
(С)
f
(%)
Тe
(С)
Тes
(С)
Комфортность P
(гПа)
Po
(гПа)
Тmin
(С)
Tmax
(С)
R
(мм)
R24
(мм)
S
(см)
Ю 1 5000 м н/о +17.9 +17.7 99 +19 +19 тепло 1009.5 1001.2 2
ЮЗ 1 13 км н/о +17.2 +16.8 97 +18 +18 тепло 1009.4 1001.1 2
З 2 8000 м слаб. дождь 10/10 100 м
[Sc Cs]
+16.9 +16.9 100 +17 +17 по сезону 1009.6 1001.3 4
З 2 10 км н/о +16.6 +16.2 97 +17 +17 тепло 1009.7 1001.4 0.4
З 1 13 км н/о +16.3 +16.0 98 +17 +17 тепло 1009.7 1001.3 0.1
З 2 8000 м в посл. час осадки {ливн. дождь} 10/10 100 м
[Ci]
+16.0 +16.0 100 1010.1 0.6
СЗ 2 35 км н/о +15.7 +14.9 95 +16 +16 тепло 1010.7 1002.4
З 1 35 км н/о +14.9 +14.3 96 +15 +15 тепло 1011.3 1003.0
З 1 35 км {ливн. дождь} 9/4 1000 м
[Ac lent Ci]
+14.9 +14.8 99 +15 +15 по сезону 1011.7 1003.3
З 2 27 км н/о +15.1 +14.6 97 +15 +15 по сезону 1012.5 1004.1
З 1 30 км н/о +15.3 +14.8 97 +16 +16 тепло 1013.3 1004.9
З 1 35 км {снег} 4/1 200 м
[Cs]
+15.4 +14.8 96 +16 +19 по сезону 1013.9 1005.5 +14.8 +18.2
З 3 35 км н/о +17.6 +14.2 80 +18 +18 тепло 1014.5 1006.1
н/о
З 3 35 км 3/3 600 м
[Cu Sc As op Cs]
+18.4 +14.8 80 +19 +26 по сезону 1015.8 1007.5
З 3 35 км н/о +19.8 +11.4 58 +22 +22 комфорт 1016.4 1008.1
З 3 35 км н/о +20.5 +12.4 60 +23 +23 комфорт 1016.8 1008.5
З 3 35 км 4/3 600 м
[Cu Sc Ac trans Ci ing]
+20.8 +14.8 69 +23 +29 комфорт 1017.2 1008.9
З 3 35 км н/о +21.3 +10.3 49 +23 +23 комфорт 1017.4 1009.1
З 3 35 км н/о +21.6 +9.7 47 +23 +23 комфорт 1017.5 1009.2
З 2 35 км 9/1
[Ac As Ci ing]
+20.3 +14.9 71 +23 +23 комфорт 1018.0 1009.7
З 2 35 км н/о +19.9 +11.1 57 +22 +22 комфорт 1018.5 1010.2
З 1 35 км н/о +18.6 +11.7 64 +20 +20 по сезону 1019.0 1010.6
З 1 35 км 9/1
[Ac cuf Ci]
+17.9 +15.4 85 +19 +19 по сезону 1019.3 1011.0 +15.4 +22.1
ЮЗ 1 35 км н/о +16.7 +12.4 76 +18 +18 по сезону 1019.7 1011.3
Ю 1 35 км н/о +15.6 +12.6 82 +16 +16 прохладно 1020.1 1011.7
ЮЗ 1 35 км 6/1
[Ac cuf Cs]
+14.9 +14.7 99 +15 +15 по сезону 1020.6 1012.2
ЮЗ 1 35 км н/о +14.6 +13.3 92 +15 +15 по сезону 1021.2 1012.7
ЮЗ 1 35 км н/о +13.9 +12.6 92 +14 +14 по сезону 1021.5 1013.0
Ю 1 35 км 9/9
[Ac cuf]
+13.5 +13.3 99 +14 +14 тепло 1021.9 1013.4
Ю 2 35 км н/о +13.6 +12.2 91 +13 +13 тепло 1022.2 1013.7
Ю 1 35 км н/о +13.5 +11.9 90 +14 +14 тепло 1022.6 1014.1
ЮЗ 1 35 км 8/8
[Ac cuf]
+13.2 +13.0 99 +13 +13 по сезону 1022.7 1014.2
Ю 1 35 км н/о +14.3 +12.2 87 +15 +15 тепло 1023.0 1014.5
Ю 1 35 км н/о +15.9 +12.9 82 +17 +17 тепло 1023.3 1014.9
ЮЗ 2 35 км 9/9 1500 м
[Ac und Cs]
+16.6 +13.0 79 1023.7
ЮЗ 2 35 км н/о +18.0 +14.0 77 +19 +19 тепло 1023.9 1015.5
н/о
ЮЗ 2 35 км 10/8 1000 м
[St Ac lent Ci]
+18.2 +13.0 72 1024.8
ЮЗ 2 35 км н/о +18.4 +13.9 75 +19 +19 тепло 1025.1 1016.7
ЮЗ 2 35 км н/о +19.8 +14.8 73 +22 +22 комфорт 1025.1 1016.8
ЮЗ 2 35 км 9/5 1500 м
[St Ac und Cs]
+19.8 +13.4 67 +22 +24 комфорт 1025.0 1016.6
ЮЗ 2 35 км н/о +20.5 +13.4 64 +23 +23 комфорт 1024.7 1016.4
Ю 2 35 км н/о +21.4 +13.8 62 +24 +24 комфорт 1024.5 1016.2
ЮЗ 2 35 км 9/6 1000 м
[St Ac lent Cs]
+21.4 +13.2 60 +24 +24 комфорт 1024.5 1016.2
З 2 35 км н/о +21.5 +14.0 62 +24 +24 комфорт 1024.5 1016.2
З 1 35 км н/о +20.5 +13.6 65 +24 +24 комфорт 1024.7 1016.4 +15.7 +21.9
штиль 0 35 км 10/5 1000 м
[St Ac lent Cc]
+19.8 +16.5 81 +21 +21 комфорт 1024.8 1016.4 +16.5 +21.9
Ю 1 35 км н/о +18.9 +14.3 75 +21 +21 комфорт 1025.1 1016.7
ЮЗ 1 35 км н/о +19.1 +14.7 76 +22 +22 комфорт 1025.3 1016.9
штиль 0 35 км 9/8 1000 м
[St Ac lent Cs]
+18.5 +17.7 95 +20 +20 тепло 1025.6 1017.2
штиль 0 35 км н/о +18.3 +15.1 82 +19 +19 тепло 1025.7 1017.3
ЮЗ 1 35 км н/о +17.1 +15.1 88 +18 +18 тепло 1026.0 1017.5
ЮЗ 1 35 км 6/4 1000 м
[St Ac lent Cs]
+16.5 +16.5 100 +17 +17 тепло 1026.1 1017.7
З 2 35 км н/о +16.3 +15.3 94 +16 +16 тепло 1026.4 1018.0
З 1 10 км н/о +16.3 +15.9 97 +17 +17 тепло 1026.7 1018.3
З 1 12 км 10/10 50 м
[Frnb Ci ing]
+16.7 +16.2 97 +18 +18 тепло 1026.9 1018.5
З 1 18 км н/о +17.2 +16.6 96 +18 +18 тепло 1027.5 1019.0
З 2 30 км н/о +17.6 +16.5 93 +18 +18 тепло 1027.8 1019.4
З 2 35 км 9/9 100 м
[St Cs]
+18.0 +16.2 89 +19 +19 тепло 1028.1 1019.6 +16.2 +19.8
З 2 35 км н/о +18.0 +16.0 88 +19 +19 тепло 1028.4 1020.0
н/о
СЗ 2 35 км 6/5 300 м
[St As trans Cs]
+19.9 +16.2 79 +23 +27 комфорт 1028.3 1020.0
СЗ 2 35 км н/о +21.0 +15.7 72 +25 +25 комфорт 1028.2 1019.8
СЗ 2 35 км н/о +22.0 +16.0 69 +26 +26 душно 1028.1 1019.8
ЮЗ 1 35 км 6/4 600 м
[Cu Sc Ac trans]
+23.1 +16.2 65 +27 +33 душно 1027.8 1019.5
С 2 35 км н/о +22.7 +15.1 62 +27 +27 душно 1027.5 1019.2
С 2 35 км н/о +23.3 +15.3 61 +28 +28 душно 1027.3 1019.0
С 1 35 км 8/5 1500 м
[St Ac und Cs]
+22.8 +16.7 68 +28 +29 душно 1027.1 1018.8
СЗ 1 35 км н/о +22.1 +18.1 78 +27 +27 душно 1026.8 1018.5
штиль 0 35 км н/о +22.9 +16.7 68 +28 +28 душно 1026.5 1018.3
штиль 0 35 км 3/1 1500 м
[St Ac und Cs]
+20.7 +17.7 83 +25 +25 комфорт 1026.6 1018.3 +17.7 +24.5
штиль 0 35 км н/о +18.5 +16.4 88 +19 +19 тепло 1026.7 1018.3
ЮЗ 1 35 км н/о +17.3 +16.6 96 +18 +18 тепло 1026.7 1018.2
ЮЗ 1 35 км 1/1
[]
+17.5 +17.1 98 +19 +19 тепло 1026.7 1018.3
Ю 1 26 км н/о +16.8 +16.2 96 +18 +18 тепло 1026.8 1018.3
ЮЗ 1 35 км н/о +16.9 +16.1 95 +18 +18 тепло 1026.9 1018.4
штиль 0 35 км 10/9 1000 м
[St Ac lent Cs]
+17.1 +16.6 97 +17 +17 тепло 1026.8 1018.3
Ю 1 30 км н/о +17.0 +16.1 94 +18 +18 тепло 1026.7 1018.3
ЮЗ 1 30 км н/о +17.0 +16.2 95 +18 +18 тепло 1026.6 1018.2
Ю 1 35 км 9/9 1500 м
[St Ac und Cs]
+17.1 +16.6 97 +18 +18 тепло 1026.5 1018.1
СЗ 1 35 км н/о +17.7 +16.9 95 +19 +19 тепло 1026.6 1018.2
Ю 1 35 км н/о +19.6 +17.3 87 +23 +23 комфорт 1026.4 1018.1
штиль 0 35 км 3/3 1000 м
[St Ac trans Cs]
+21.8 +16.6 72 +26 +30 душно 1026.4 1001.6 +16.6 +23.0
СВ 1 35 км н/о +23.0 +16.8 68 +28 +28 душно 1026.2 1017.9
н/о
В 2 35 км 8/8 1500 м
[Cu Sc Ac und Cs]
+24.4 +16.6 62 +28 +30 душно 1025.4 1017.2
Ю 1 35 км н/о +25.0 +16.7 60 +29 +29 душно 1025.0 1016.8
СЗ 2 35 км н/о +23.8 +17.0 66 +28 +28 душно 1024.8 1016.5
ЮЗ 1 35 км 8/6 1000 м
[Cu Sc Ac trans Cs]
+25.0 +17.0 61 +28 +31 жарко 1024.2 1016.0
СЗ 2 35 км н/о +25.9 +16.4 56 +29 +29 душно 1023.6 1015.5
СЗ 1 35 км н/о +26.3 +16.4 54 +30 +30 душно 1023.0 1014.8
З 2 35 км 6/6 1000 м
[St Ac lent Ci ing]
+26.2 +17.1 57 +30 +31 душно 1022.6 1014.4
СЗ 2 35 км н/о +26.1 +17.5 59 +30 +30 душно 1022.3 1014.1
З 2 35 км н/о +25.3 +16.4 58 +29 +29 душно 1022.1 1013.9
ЮВ 1 35 км 3/3 600 м
[St As op Cs]
+22.9 +21.4 91 +28 +28 душно 1022.0 1013.7 +21.4 +26.8
штиль 0 35 км н/о +20.1 +17.3 84 +23 +23 комфорт 1021.9 1013.6
З 1 35 км н/о +18.7 +17.6 93 +21 +21 комфорт 1021.8 1013.4
В 1 35 км 1/1 1000 м
[St Ac und]
+18.5 +18.2 98 +20 +20 тепло 1021.7 1013.4
Ю 1 30 км н/о +17.6 +17.0 96 +19 +19 тепло 1021.8 1013.4
В 1 1700 м н/о +16.3 +16.2 99 +17 +17 тепло 1021.7 1013.3
штиль 0 400 м местами туман поземный 1/0
[]
+16.3 +15.9 97 +16 +16 тепло 1021.7 1013.2
штиль 0 200 м н/о +15.6 +15.5 99 +15 +15 тепло 1021.5 1013.1
штиль 0 400 м н/о +15.0 +15.0 100 +15 +15 тепло 1021.5 1013.0
штиль 0 200 м туман поземный 1/1 50 м
[Ci ing]
+14.6 +14.6 100 +14 +14 тепло 1021.6 1013.1
ЮВ 1 16 км н/о +15.8 +15.6 99 +16 +16 тепло 1021.6 1013.1
Ю 1 35 км н/о +19.1 +16.9 87 +22 +22 комфорт 1021.5 1013.1
ЮЗ 1 35 км 1/0
[]
+21.6 +13.7 61 +24 +29 комфорт 1021.2 1001.5 +13.7 +22.9
ЮЗ 1 35 км н/о +23.9 +17.7 68 +28 +28 душно 1021.0 1012.8
н/о
С 2 35 км 3/3 1000 м
[Cu Sc Ac trans Cs]
+25.4 +13.7 48 +29 +36 душно 1020.6 1012.5
С 2 35 км н/о +26.3 +18.1 61 +31 +31 душно 1020.4 1012.3
З 3 35 км н/о +26.5 +15.5 51 +30 +30 душно 1020.1 1012.0
СЗ 2 35 км 3/3 1000 м
[Cu Sc Ac lent Cs]
+26.9 +13.7 44 +30 +36 душно 1019.6 1011.5
СЗ 3 35 км н/о +25.4 +16.8 59 +29 +29 душно 1019.2 1011.1
СВ 1 35 км н/о +25.1 +17.4 62 +29 +29 душно 1018.9 1010.8
В 1 35 км в посл. час ливневой дождь 5/4 600 м
[Cb cap As op Cs]
+26.5 +13.7 45 +31 +33 душно 1018.5 1010.3 +13.7 +27.8
ЮЗ 1 35 км н/о +26.4 +17.8 59 +31 +31 душно 1018.5 1010.3
ЮЗ 2 35 км н/о +23.9 +17.0 65 +28 +28 душно 1018.3 1010.1
Ю 1 35 км гроза без осадков {ливн. дождь} 3/3 1500 м
[Cb cap Ac und Cs]
+21.8 +21.6 99 +26 +26 душно 1018.5 1010.2 +21.6 +27.8
Ю 1 35 км н/о +20.6 +16.5 77 +25 +25 комфорт 1018.5 1010.2
ЮЗ 1 35 км н/о +19.5 +16.3 82 +23 +23 комфорт 1018.6 1010.2
З 1 35 км {гроза} 1/1
[]
+18.7 +18.7 100 +21 +21 комфорт 1018.7 1010.4
штиль 0 35 км н/о +17.7 +16.6 93 +18 +18 тепло 1018.8 1010.4
Ю 1 35 км н/о +16.8 +16.2 96 +18 +18 тепло 1018.7 1010.3
ЮЗ 1 13 км местами туман поземный {гроза} 1/0
[]
+16.5 +16.3 99 +17 +17 тепло 1018.7 1010.3 +16.3 +27.8
ЮЗ 1 600 м н/о +16.0 +15.9 99 +17 +17 тепло 1018.5 1010.1
ЮЗ 1 1100 м н/о +15.7 +15.7 100 +16 +16 тепло 1018.4 1010.0
ЮЗ 1 500 м туман ясно +14.9 +14.9 100 +15 +15 по сезону 1018.4 1010.0
З 1 27 км н/о +16.5 +16.2 98 +17 +17 тепло 1018.4 1010.0
СЗ 2 35 км н/о +17.5 +16.4 93 +18 +18 тепло 1018.5 1010.2
СЗ 2 35 км 5/1 200 м
[Frnb Cs]
+18.9 +14.6 76 +21 +24 комфорт 1018.6 1001.4 +14.6 +21.9
СЗ 2 35 км н/о +20.0 +16.7 81 +23 +23 комфорт 1018.5 1010.3
н/о
СЗ 3 35 км 9/9 600 м
[Cu Sc As op Ci ing]
+22.0 +14.6 63 +26 +31 душно 1018.5 1010.3
С 3 35 км н/о +22.5 +15.8 66 +27 +27 душно 1018.3 1010.1
С 3 35 км н/о +21.9 +15.1 65 +25 +25 комфорт 1018.5 1010.3
С 4 35 км 6/6 1000 м
[Cu Sc Ac trans Ci]
+23.1 +14.6 59 +27 +29 душно 1018.4 1010.2
35 км н/о +22.8 +13.2 55 1018.6 1010.4
С 3
{8}
35 км н/о +22.2 +11.5 51 +24 +28 комфорт 1018.8 1010.6 +14.6 +23.8
С 3 35 км 1/1 1000 м
[Cu Sc Ac und]
+21.6 +14.6 64 +23 +26 комфорт 1019.1 1010.9
С 3 35 км н/о +20.5 +8.2 45 +22 +22 комфорт 1019.3 1011.0
С 2 35 км н/о +19.2 +8.9 51 +21 +21 комфорт 1019.8 1011.4
С 2 35 км 1/1
[]
+17.5 +17.4 99 +18 +18 по сезону 1020.2 1011.8 +17.4 +23.8
СЗ 1 35 км н/о +14.6 +9.2 70 +15 +15 прохладно 1020.5 1012.0
СЗ 1 35 км н/о +13.8 +9.9 77 +14 +14 прохладно 1020.7 1012.2
СЗ 1 35 км ясно +13.4 +13.3 99 +14 +14 по сезону 1021.0 1012.5
СЗ 1 35 км н/о +12.5 +9.5 82 +13 +13 по сезону 1021.4 1012.9
СЗ 1 35 км н/о +12.1 +9.5 84 +12 +12 прохладно 1021.7 1013.1
СЗ 1 35 км ясно +11.5 +11.3 99 +11 +11 по сезону 1021.8 1013.2
СЗ 1 35 км н/о +10.9 +9.2 89 +11 +11 по сезону 1021.8 1013.2
СЗ 2 35 км н/о +10.7 +9.1 90 +9 +9 по сезону 1022.0 1013.4
СЗ 1 35 км 1/1
[]
+9.8 +9.7 99 +9 +9 холодно 1022.3 1013.7
СЗ 1 35 км н/о +11.0 +9.0 87 +11 +11 прохладно 1022.4 1013.8
С 2 35 км н/о +13.2 +9.4 78 +13 +13 по сезону 1022.3 1013.8
СЗ 2 35 км 3/1
[]
+15.6 +9.7 68 +16 +19 по сезону 1022.3 1001.0 +9.7 +17.5
С 3 35 км н/о +16.3 +9.1 62 +16 +16 по сезону 1022.4 1014.0
н/о
СЗ 2 35 км 9/9 1000 м
[Cu Sc Ac lent Ci]
+16.5 +9.7 64 +17 +18 по сезону 1022.8 1014.4
С 2 35 км н/о +16.5 +9.0 61 +17 +17 по сезону 1022.8 1014.4
С 2 35 км н/о +17.1 +9.5 61 +17 +17 по сезону 1022.9 1014.5
С 3 35 км 9/9 1000 м
[Cu Sc Ac trans Cs]
+17.8 +9.7 59 +18 +21 по сезону 1022.8 1014.4
С 3 35 км н/о +17.5 +8.5 55 +18 +18 прохладно 1022.9 1014.5
35 км н/о +17.0 +7.5 54 1022.9 1014.5
35 км 9/9 1500 м
[St Ac und Cs]
+16.7 +9.8 64 1023.1 1014.7
С 2 35 км н/о +15.6 +9.6 67 +16 +16 прохладно 1023.0 1014.6
СЗ 2 35 км 9/9 1500 м
[St Ac und Cs]
+14.9 +14.8 99 +15 +15 по сезону 1023.0 1014.5 +14.8 +18.7
Местоположение метеостанции Тарту (Эстония): широта 58.30 долгота 26.73 высота над уровнем моря 68 м.
В архиве по умолчанию представлена погода в Тарту за последнюю неделю. Архивные данные за месяц целиком и за предыдущие месяцы, начиная с января 2011 года, Вы можете получить, выбрав интересующий диапазон дат из раскрывающегося списка и нажав кнопку "Найти!".
*Определитесь, кто Вы:
Внимание! Время в таблицах - всемирное. Для получения местного времени необходимо прибавить поправку, которая равна 2 ч.
Смотрите также архив погоды в соседних городах и на ближайших метеорологических станциях:
Партнеры нашего сайта:      
Пояснения к столбцам:
  • Ветер - указаны скорость ветра в м/с - средняя за 10 мин, порывы в срок и между сроками (в фигурных скобках) и направление, откуда дует ветер: С - северный,
  • СВ - северо-восточный, В - восточный, ЮВ - юго-восточный, Ю - южный, ЮЗ - юго-западный, З - западный, СЗ - северо-западный.
  • Видимость - горизонтальная дальность видимости в метрах или километрах. При видимости от 1 до 10 км при отсутствии осадков обычно наблюдается дымка, при ухудшении видимости до 1 км и менее - туман. В сухую погоду видимость может ухудшаться дымом, пылью или мглою.
  • Явления - указаны атмосферные явления, наблюдавшиеся в срок или в последний час перед сроком; фигурными скобками обозначены явления, наблюдавшиеся между сроками (за 1-3 часа до срока); квадратными скобками обозначены град или гололедные отложения с указанием их диаметра в мм.
  • Облачность - указаны через наклонную черту общая и нижняя облачность в баллах и высота нижней границы облаков в метрах; квадратными скобками обозначены формы облаков: Ci - перистые, Cs - перисто-слоистые, Cc - перисто-кучевые, Ac - высококучевые, As - высокослоистые, Sc - слоисто-кучевые, Ns - слоисто-дождевые, Cu - кучевые, Cb - кучево-дождевые. Подробнее классификацию облаков см. в Атласе облаков (PDF).
  • T - Температура воздуха - температура, измеренная на высоте 2 м над землей.
  • Td - Температура точки росы - температура, при понижении до которой содержащийся в воздухе водяной пар достигнет насыщения.
  • f - Относительная влажность воздуха - влажноcть воздуха, измеренная на высоте 2 м над землей.
  • Te - Эффективная температура - температура, которую ощущает одетый по сезону человек в тени. Характеристика душности погоды. При расчете учитывается влияние влажности воздуха и скорости ветра на теплоощущения человека.
  • Tes - Эффективная температура на солнце - температура, которую ощущает человек, с поправкой на солнечный нагрев. Характеристика знойности погоды. Зависит от высоты солнца над горизонтом, облачности и скорости ветра. Ночью, в пасмурную погоду, а также при ветре 12 м/с и более поправка равна нулю.
  • P - Атмосферное давление - приведенное к уровню моря атмосферное давление.
  • Po - Атмосферное давление - измеренное на уровне метеостанции атмосферное давление.
  • Tmin - Минимальная температура - минимум температуры воздуха на высоте 2 м над землей.
  • Tmax - Максимальная температура - максимум температуры воздуха на высоте 2 м над землей.
  • R - Количество осадков - Количество выпавших осадков за период времени, мм. При наведении курсора мыши на число - период времени, за который выпало указанное количество осадков.
  • R24 - Количество осадков - Количество выпавших осадков за 24 часа, мм.
  • S - Снежный покров - Высота снежного покрова, см. При наведении курсора мыши на число - состояние снежного покрова и степень покрытия местности в баллах.